Regional Weather Roundup
Issued by NWS Albany, NY

Home | Current Version | Previous Version | Text Only | Print | Product List | Glossary On
Versions: 1 2 3 4 5 6 7 8 9 10 11 12 13 14 15 16 17 18 19 20 21 22 23 24 25 26 27
000
ASUS41 KALY 162010
RWRALY

NEW YORK STATE HOURLY WEATHER ROUNDUP
NATIONAL WEATHER SERVICE ALBANY NY
400 PM EDT WED AUG 16 2017

NOTE: "FAIR" INDICATES FEW OR NO CLOUDS BELOW 12,000 FEET WITH NO
SIGNIFICANT WEATHER AND/OR NO OBSTRUCTIONS TO VISIBILITY.

NYZ032-033-038>043-046>054-057>066-NYZ062>081-082-084-162100-
EAST


CITY           SKY/WX    TMP DP  RH WIND       PRES   REMARKS
ALBANY         PTSUNNY   81  58  45 NW14      29.96S
GLENS FALLS    MOSUNNY   76  59  55 E12       29.96F
POUGHKEEPSIE   MOSUNNY   82  61  48 CALM      29.95F
NEWBURGH       PTSUNNY   82  63  51 NW9       29.99S
MONTGOMERY     PTSUNNY   84  61  45 NE3       29.96F
WHITE PLAINS   PTSUNNY   83  61  47 NW5       29.97S
ISLIP          PTSUNNY   86  61  42 N10       29.95R
NEW YORK CITY  PTSUNNY   84  63  49 N7        29.95S
CENTRAL PARK   PTSUNNY   85  62  46 VRB3      29.99S
$$

NYZ005>009-017-018-044>046-055-056-162100-
CENTRAL


CITY           SKY/WX    TMP DP  RH WIND       PRES   REMARKS
FULTON         SUNNY     73  53  49 NW10      30.06F
SYRACUSE       PTSUNNY   75  55  49 NW12      30.04S
ROME           MOSUNNY   78  51  38 W15       30.02S
ELMIRA         SUNNY     79  59  50 N9        30.04F
BINGHAMTON     MOSUNNY   75  57  53 VRB6      30.06S
MONTICELLO     PTSUNNY   76  59  55 NW8       30.03F
$$

NYZ026>034-041>043-087-162100-
NORTH


CITY           SKY/WX    TMP DP  RH WIND       PRES   REMARKS
WATERTOWN      SUNNY     74  51  44 N9        30.05F
FORT DRUM      NOT AVBL
OGDENSBURG     FAIR      75  50  41 NW8       30.04F
MASSENA        SUNNY     73  52  47 N9        30.04F
SARANAC LAKE   SUNNY     68  46  45 W9        30.04F
PLATTSBURGH    SUNNY     75  44  33 NW9       30.00F
$$

NYZ001>004-010>016-019>021-085-162100-
WEST


CITY           SKY/WX    TMP DP  RH WIND       PRES   REMARKS
NIAGARA FALLS  SUNNY     79  61  53 N8        30.06F
BUFFALO        MOSUNNY   77  60  55 NE8       30.06F
DUNKIRK        SUNNY     76  62  62 NW8       30.06F
JAMESTOWN      SUNNY     74  51  44 NE5       30.10F
WELLSVILLE     MOSUNNY   78  57  48 N8        30.11F
ROCHESTER      MOSUNNY   74  60  61 NE10      30.08F
PENN YAN       MOSUNNY   75  59  57 N6        30.07F
$$

             KEY
       WCI = WIND CHILL INDEX
       VSB = VISIBILITY
       HX  = HEAT INDEX
$$




USA.gov is the U.S. government's official web portal to all federal, state and local government web resources and services.